DW3640 Weather Reports


time (UTC)temp
C
wind
direction
speed
KPH
gust
KPH
rain 1hr
cm
rain 24hr
cm
rain mn
cm
humidity
%
barometer
mb
20260507160056 16 181 0.0 0.0 0.00 0.00 0.00 87 1014.1
20260507155551 16 188 0.0 0.0 0.00 0.00 0.00 89 1014.2
20260507155049 16 196 0.0 0.0 0.00 0.00 0.00 89 1014.3
20260507154546 16 196 0.0 0.0 0.00 0.00 0.00 90 1014.4
20260507154043 16 196 0.0 0.0 0.00 0.00 0.00 90 1014.2
20260507153540 16 196 0.0 0.0 0.00 0.00 0.00 90 1014.1
20260507153036 15 193 0.0 0.0 0.00 0.00 0.00 90 1014.1
20260507152532 15 197 0.0 0.0 0.00 0.00 0.00 90 1014.1
20260507152029 15 190 0.0 0.0 0.00 0.00 0.00 91 1014.2
20260507151525 15 184 0.0 0.0 0.00 0.00 0.00 90 1014.2
20260507151022 15 193 0.0 0.0 0.00 0.00 0.00 91 1014.1
20260507150519 15 198 0.0 0.0 0.00 0.00 0.00 92 1014.1
20260507150016 15 190 0.0 0.0 0.00 0.00 0.00 93 1014.0
20260507145510 15 187 0.0 0.0 0.00 0.00 0.00 93 1014.1
20260507145008 15 168 0.0 0.0 0.00 0.00 0.00 94 1014.0
20260507144504 15 172 0.0 1.6 0.00 0.00 0.00 94 1013.9
20260507144002 15 187 0.0 0.0 0.00 0.00 0.00 95 1014.1
20260507143459 14 190 0.0 0.0 0.00 0.00 0.00 96 1013.9
20260507142956 14 188 0.0 0.0 0.00 0.00 0.00 96 1014.0
20260507142452 14 185 0.0 0.0 0.00 0.00 0.00 96 1013.9
20260507141949 14 186 0.0 0.0 0.00 0.00 0.00 97 1013.9
20260507141444 13 191 0.0 0.0 0.00 0.00 0.00 97 1013.8
20260507140942 13 187 0.0 0.0 0.00 0.00 0.00 97 1013.6
20260507140438 13 187 0.0 0.0 0.00 0.00 0.00 98 1013.7
20260507135936 13 161 0.0 0.0 0.00 0.00 0.00 98 1013.7
20260507135433 13 190 0.0 0.0 0.00 0.00 0.00 98 1013.5
20260507134930 12 188 0.0 0.0 0.00 0.00 0.00 98 1013.6
20260507134427 12 187 0.0 0.0 0.00 0.00 0.00 99 1013.4
20260507133923 12 189 0.0 0.0 0.00 0.00 0.00 99 1013.4
20260507133419 12 180 0.0 0.0 0.00 0.00 0.00 99 1013.5
20260507132917 12 173 0.0 0.0 0.00 0.00 0.00 99 1013.6
20260507132413 12 187 0.0 0.0 0.00 0.00 0.00 99 1013.4
20260507131910 12 188 0.0 0.0 0.00 0.00 0.00 99 1013.5
20260507131407 12 193 0.0 0.0 0.00 0.00 0.00 99 1013.5
20260507130904 12 184 0.0 0.0 0.00 0.00 0.00 99 1013.4
20260507130401 12 186 0.0 0.0 0.00 0.00 0.00 99 1013.4
20260507125900 12 190 0.0 0.0 0.00 0.00 0.00 99 1013.3
20260507125357 13 186 0.0 0.0 0.00 0.00 0.00 99 1013.4
20260507124854 12 188 0.0 0.0 0.00 0.00 0.00 99 1013.4
20260507124350 12 186 0.0 0.0 0.00 0.00 0.00 99 1013.1
20260507123849 12 189 0.0 0.0 0.00 0.00 0.00 98 1013.1
20260507123345 12 187 0.0 0.0 0.00 0.00 0.00 98 1013.0
20260507122842 12 177 0.0 0.0 0.00 0.00 0.00 98 1013.1
20260507122337 12 185 0.0 0.0 0.00 0.00 0.00 98 1013.0
20260507121834 12 181 0.0 0.0 0.00 0.00 0.00 98 1013.1
20260507121329 12 183 0.0 0.0 0.00 0.00 0.00 98 1012.9
20260507120826 12 180 0.0 0.0 0.00 0.00 0.00 98 1013.0
20260507120322 12 183 0.0 0.0 0.00 0.00 0.00 98 1013.0
20260507115819 12 189 0.0 0.0 0.00 0.00 0.00 98 1013.2
20260507115315 12 189 0.0 0.0 0.00 0.00 0.00 98 1013.1
20260507114810 13 147 0.0 0.0 0.00 0.00 0.00 98 1013.2
20260507114308 13 171 0.0 0.0 0.00 0.00 0.00 98 1013.2
20260507113805 13 182 0.0 0.0 0.00 0.00 0.00 98 1012.7
20260507113302 13 187 0.0 0.0 0.00 0.00 0.00 98 1013.0
20260507112800 13 183 0.0 0.0 0.00 0.00 0.00 98 1013.0
20260507112256 13 184 0.0 0.0 0.00 0.00 0.00 98 1013.1
20260507111755 13 170 0.0 0.0 0.00 0.00 0.00 98 1013.2
20260507111250 13 161 0.0 0.0 0.00 0.00 0.00 98 1013.3
20260507110747 13 173 0.0 0.0 0.00 0.00 0.00 97 1013.0
20260507110243 13 181 0.0 0.0 0.00 0.00 0.00 98 1013.2
20260507105740 13 178 0.0 0.0 0.00 0.00 0.00 98 1013.3
20260507105236 13 179 0.0 0.0 0.00 0.00 0.00 98 1013.1
20260507104734 13 179 0.0 0.0 0.00 0.00 0.00 97 1013.1
20260507104230 13 179 0.0 0.0 0.00 0.00 0.00 98 1013.2
20260507103726 13 181 0.0 0.0 0.00 0.00 0.00 97 1013.1
20260507103223 13 181 0.0 0.0 0.00 0.00 0.00 97 1013.3
20260507102719 13 182 0.0 0.0 0.00 0.00 0.00 97 1013.4
20260507102216 13 187 0.0 0.0 0.00 0.00 0.00 97 1013.5
20260507101712 13 168 0.0 0.0 0.00 0.00 0.00 97 1013.6
20260507101207 13 175 0.0 0.0 0.00 0.00 0.00 97 1013.6
20260507100705 13 184 0.0 0.0 0.00 0.00 0.00 97 1013.6
20260507100203 13 188 0.0 0.0 0.00 0.00 0.00 97 1013.3
20260507095701 13 182 0.0 0.0 0.00 0.00 0.00 97 1013.4
20260507095157 13 160 0.0 0.0 0.00 0.00 0.00 97 1013.6
20260507094654 13 178 0.0 0.0 0.00 0.00 0.00 97 1013.5
20260507094150 13 182 0.0 0.0 0.00 0.00 0.00 97 1013.6
20260507093648 13 178 0.0 0.0 0.00 0.00 0.00 97 1013.4
20260507093146 13 182 0.0 0.0 0.00 0.00 0.00 97 1013.6
20260507092643 13 185 0.0 0.0 0.00 0.00 0.00 96 1013.7
20260507092139 13 185 0.0 0.0 0.00 0.00 0.00 96 1013.5
20260507091636 13 179 0.0 0.0 0.00 0.00 0.00 96 1013.8
20260507091132 13 180 0.0 0.0 0.00 0.00 0.00 96 1013.8
20260507090628 13 184 0.0 0.0 0.00 0.00 0.00 96 1013.7
20260507090126 13 185 0.0 0.0 0.00 0.00 0.00 96 1014.1
20260507085622 14 180 0.0 0.0 0.00 0.00 0.00 96 1013.9
20260507085119 14 182 0.0 0.0 0.00 0.00 0.00 96 1013.9
20260507084615 14 185 0.0 0.0 0.00 0.00 0.00 96 1014.1
20260507084112 14 182 0.0 0.0 0.00 0.00 0.00 96 1014.1
20260507083609 14 184 0.0 0.0 0.00 0.00 0.00 95 1014.2
20260507083106 14 184 0.0 0.0 0.00 0.00 0.00 95 1014.2
20260507082602 14 182 0.0 0.0 0.00 0.00 0.00 95 1014.4
20260507082058 14 181 0.0 0.0 0.00 0.00 0.00 95 1014.2
20260507081555 14 183 0.0 0.0 0.00 0.00 0.00 95 1014.3
20260507081052 14 181 0.0 0.0 0.00 0.00 0.00 95 1014.2
20260507080548 14 173 0.0 0.0 0.00 0.00 0.00 95 1014.2
20260507080044 14 181 0.0 0.0 0.00 0.00 0.00 95 1014.4
20260507075539 14 184 0.0 0.0 0.00 0.00 0.00 95 1014.5
20260507075036 14 182 0.0 0.0 0.00 0.00 0.00 95 1014.5
20260507074533 14 174 0.0 0.0 0.00 0.00 0.00 95 1014.5
20260507074032 14 183 0.0 0.0 0.00 0.00 0.00 95 1014.4
20260507073527 14 183 0.0 0.0 0.00 0.00 0.00 95 1014.4
20260507073024 14 158 0.0 0.0 0.00 0.00 0.00 95 1014.4
20260507072521 14 179 0.0 0.0 0.00 0.00 0.00 95 1014.2
20260507072018 15 191 0.0 0.0 0.00 0.00 0.00 95 1014.3
20260507071516 15 184 0.0 0.0 0.00 0.00 0.00 95 1014.2
20260507071012 15 178 0.0 0.0 0.00 0.00 0.00 95 1014.4
20260507070509 15 190 0.0 0.0 0.00 0.00 0.00 94 1014.4
20260507070010 15 184 0.0 0.0 0.00 0.00 0.00 94 1014.5
20260507065502 15 182 0.0 0.0 0.00 0.00 0.00 94 1014.6
20260507065000 15 181 0.0 0.0 0.00 0.00 0.00 95 1014.7
20260507064458 15 185 0.0 0.0 0.00 0.00 0.00 95 1014.6
20260507063956 15 185 0.0 0.0 0.00 0.00 0.00 95 1014.5
20260507063453 15 185 0.0 0.0 0.00 0.00 0.00 95 1014.7
20260507062950 15 186 0.0 0.0 0.00 0.00 0.00 96 1014.6
20260507062447 15 185 0.0 0.0 0.00 0.00 0.00 96 1014.7
20260507061944 15 184 0.0 0.0 0.00 0.00 0.00 96 1014.5
20260507061442 15 194 0.0 0.0 0.00 0.00 0.00 96 1014.6
20260507060940 15 194 0.0 0.0 0.00 0.00 0.00 96 1014.8
20260507060437 15 193 0.0 0.0 0.00 0.00 0.00 96 1014.7
20260507055933 15 193 0.0 0.0 0.00 0.00 0.00 95 1014.7
20260507055428 15 194 0.0 0.0 0.00 0.00 0.00 95 1014.7
20260507054926 15 195 0.0 0.0 0.00 0.00 0.00 95 1014.7
20260507054421 15 194 0.0 0.0 0.00 0.00 0.00 95 1014.6
20260507053919 15 194 0.0 0.0 0.00 0.00 0.00 95 1014.7
20260507053416 15 194 0.0 0.0 0.00 0.00 0.00 94 1014.7
20260507052915 15 195 0.0 0.0 0.00 0.00 0.00 94 1014.6
20260507052412 15 195 0.0 0.0 0.00 0.00 0.00 94 1014.6
20260507051909 15 193 0.0 0.0 0.00 0.00 0.00 93 1014.6
20260507051407 15 193 0.0 0.0 0.00 0.00 0.00 93 1014.7
20260507050903 15 194 0.0 0.0 0.00 0.00 0.00 93 1014.6
20260507050400 15 195 0.0 0.0 0.00 0.00 0.00 93 1014.6
20260507045857 15 198 0.0 0.0 0.00 0.00 0.00 92 1014.5
20260507045353 15 229 0.0 0.0 0.00 0.00 0.00 92 1014.3
20260507044851 15 197 0.0 0.0 0.00 0.00 0.00 92 1014.5
20260507044347 15 193 0.0 0.0 0.00 0.00 0.00 91 1014.4
20260507043843 15 195 0.0 0.0 0.00 0.00 0.00 91 1014.5
20260507043340 15 197 0.0 0.0 0.00 0.00 0.00 90 1014.4
20260507042836 16 227 0.0 0.0 0.00 0.00 0.00 89 1014.3
20260507042332 15 236 0.0 0.0 0.00 0.00 0.00 89 1014.3
20260507041829 15 228 0.0 0.0 0.00 0.00 0.00 89 1014.4
20260507041325 15 196 0.0 0.0 0.00 0.00 0.00 89 1014.4
20260507040823 15 216 0.0 0.0 0.00 0.00 0.00 89 1014.3
20260507040319 16 185 0.0 0.0 0.00 0.00 0.00 89 1014.3
20260507035815 16 205 0.0 0.0 0.00 0.00 0.00 88 1014.4
20260507035310 16 192 0.0 0.0 0.00 0.00 0.00 88 1014.1
20260507034808 16 207 0.0 0.0 0.00 0.00 0.00 88 1014.2
20260507034305 16 212 0.0 0.0 0.00 0.00 0.00 88 1014.1
20260507033803 16 205 0.0 0.0 0.00 0.00 0.00 88 1014.0
20260507033301 16 197 0.0 0.0 0.00 0.00 0.00 88 1014.2
20260507032757 16 205 0.0 0.0 0.00 0.00 0.00 88 1014.0
20260507032253 16 209 0.0 0.0 0.00 0.00 0.00 87 1013.9
20260507031750 16 198 0.0 0.0 0.00 0.00 0.00 87 1013.9
20260507031247 16 195 0.0 0.0 0.00 0.00 0.00 88 1013.9
20260507030744 16 222 0.0 0.0 0.00 0.00 0.00 87 1013.9
20260507030241 16 237 0.0 0.0 0.00 0.00 0.00 87 1013.9
20260507025738 16 200 0.0 0.0 0.00 0.00 0.00 87 1013.7
20260507025235 16 204 0.0 1.6 0.00 0.00 0.00 87 1013.8
20260507024733 16 253 0.0 9.7 0.00 0.00 0.00 87 1013.7
20260507024230 16 277 3.2 8.0 0.00 0.00 0.00 86 1013.7
20260507023726 16 271 6.4 14.5 0.00 0.00 0.00 85 1013.6
20260507023223 17 266 4.8 9.7 0.00 0.00 0.00 84 1013.5
20260507022720 17 199 0.0 3.2 0.00 0.00 0.00 80 1013.6
20260507022216 17 226 0.0 0.0 0.00 0.00 0.00 78 1013.5
20260507021712 17 228 0.0 0.0 0.00 0.00 0.00 77 1013.4
20260507021208 18 262 0.0 0.0 0.00 0.00 0.00 74 1013.6
20260507020707 18 213 0.0 0.0 0.00 0.00 0.00 74 1013.5
20260507020202 18 199 0.0 0.0 0.00 0.00 0.00 75 1013.4
20260507015700 18 194 0.0 1.6 0.00 0.00 0.00 76 1013.4
20260507015158 18 248 0.0 0.0 0.00 0.00 0.00 75 1013.3
20260507014654 18 266 6.4 11.3 0.00 0.00 0.00 75 1013.2
20260507014150 18 226 0.0 1.6 0.00 0.00 0.00 74 1013.5
20260507013647 19 237 1.6 8.0 0.00 0.00 0.00 71 1013.4
20260507013144 19 198 0.0 3.2 0.00 0.00 0.00 71 1013.3
20260507012642 19 267 1.6 12.9 0.00 0.00 0.00 67 1013.2
20260507012137 20 264 0.0 0.0 0.00 0.00 0.00 68 1013.3
20260507011635 20 252 0.0 8.0 0.00 0.00 0.00 66 1013.2
20260507011131 19 214 0.0 0.0 0.00 0.00 0.00 70 1013.4
20260507010626 20 264 1.6 4.8 0.00 0.00 0.00 69 1013.1
20260507010122 19 214 0.0 12.9 0.00 0.00 0.00 71 1013.3
20260507005620 20 259 0.0 0.0 0.00 0.00 0.00 68 1013.3
20260507005116 20 227 0.0 4.8 0.00 0.00 0.00 68 1013.3
20260507004613 20 222 0.0 0.0 0.00 0.00 0.00 67 1013.0
20260507004110 21 301 0.0 0.0 0.00 0.00 0.00 63 1013.3
20260507003606 20 203 0.0 0.0 0.00 0.00 0.00 67 1013.2
20260507003101 20 260 0.0 1.6 0.00 0.00 0.00 66 1013.1
20260507002558 19 243 1.6 12.9 0.00 0.00 0.00 67 1013.4
20260507002054 18 271 4.8 14.5 0.00 0.00 0.00 69 1013.1
20260507001551 19 243 0.0 11.3 0.00 0.00 0.00 64 1013.0
20260507001048 18 220 1.6 20.9 0.00 0.00 0.00 66 1013.1
20260507000544 20 260 9.7 20.9 0.00 0.00 0.00 67 1013.1
20260507000040 19 273 0.0 8.0 0.00 0.00 0.00 68 1013.0
20260506235538 19 261 9.7 17.7 0.00 0.00 0.00 66 1013.0
20260506235033 19 242 0.0 8.0 0.00 0.00 0.00 64 1013.2
20260506234531 19 267 0.0 12.9 0.00 0.00 0.00 67 1012.9
20260506234028 18 279 0.0 14.5 0.00 0.00 0.00 69 1013.0
20260506233524 19 282 0.0 12.9 0.00 0.00 0.00 71 1012.9
20260506233021 19 284 0.0 9.7 0.00 0.00 0.00 69 1013.0
20260506232517 19 279 6.4 16.1 0.00 0.00 0.00 69 1013.1
20260506232013 18 273 0.0 16.1 0.00 0.00 0.00 70 1012.9
20260506231511 19 258 0.0 12.9 0.00 0.00 0.00 72 1013.1
20260506231009 21 246 0.0 14.5 0.00 0.00 0.00 67 1013.1
20260506230504 21 281 0.0 1.6 0.00 0.00 0.00 68 1013.3
20260506230002 21 236 1.6 9.7 0.00 0.00 0.00 66 1013.0
20260506225459 20 232 6.4 12.9 0.00 0.00 0.00 66 1013.2
20260506224955 21 247 14.5 20.9 0.00 0.00 0.00 63 1013.1
20260506224452 21 265 6.4 14.5 0.00 0.00 0.00 66 1013.1
20260506223948 20 190 0.0 14.5 0.00 0.00 0.00 66 1013.2
20260506223444 21 293 0.0 1.6 0.00 0.00 0.00 64 1013.2
20260506222942 21 241 1.6 3.2 0.00 0.00 0.00 62 1013.2
20260506222438 22 247 0.0 3.2 0.00 0.00 0.00 63 1013.2
20260506221935 21 295 0.0 0.0 0.00 0.00 0.00 64 1013.3
20260506221432 21 295 3.2 8.0 0.00 0.00 0.00 64 1013.5
20260506220930 21 342 0.0 0.0 0.00 0.00 0.00 64 1013.6
20260506220425 21 267 6.4 14.5 0.00 0.00 0.00 68 1013.3
20260506215922 20 255 0.0 9.7 0.00 0.00 0.00 69 1013.5
20260506215418 20 285 0.0 0.0 0.00 0.00 0.00 71 1013.6
20260506214914 20 236 6.4 16.1 0.00 0.00 0.00 72 1013.8
20260506214411 19 284 4.8 14.5 0.00 0.00 0.00 73 1013.8
20260506213909 19 232 0.0 14.5 0.00 0.00 0.00 73 1013.6
20260506213406 19 259 0.0 12.9 0.00 0.00 0.00 72 1013.7
20260506212904 20 273 9.7 24.1 0.00 0.00 0.00 72 1013.7
20260506212359 20 261 6.4 16.1 0.00 0.00 0.00 72 1013.7
20260506211854 19 240 6.4 16.1 0.00 0.00 0.00 72 1013.6
20260506211350 19 287 4.8 17.7 0.00 0.00 0.00 73 1013.8
20260506210848 18 267 17.7 24.1 0.00 0.00 0.00 73 1013.9
20260506210344 19 282 12.9 17.7 0.00 0.00 0.00 72 1013.8
20260506205842 18 223 0.0 14.5 0.00 0.00 0.00 74 1013.9
20260506205337 18 273 6.4 17.7 0.00 0.00 0.00 73 1014.2
20260506204834 18 278 8.0 17.7 0.00 0.00 0.00 73 1014.2
20260506204332 18 268 1.6 14.5 0.00 0.00 0.00 74 1014.0
20260506203829 19 272 11.3 22.5 0.00 0.00 0.00 74 1014.0
20260506203326 18 278 9.7 16.1 0.00 0.00 0.00 74 1014.0
20260506202823 18 274 1.6 17.7 0.00 0.00 0.00 74 1013.8
20260506202320 18 292 3.2 22.5 0.00 0.00 0.00 75 1014.0
20260506201816 18 286 9.7 24.1 0.00 0.00 0.00 73 1014.0
20260506201314 19 264 8.0 29.0 0.00 0.00 0.00 73 1013.9
20260506200811 19 252 1.6 16.1 0.00 0.00 0.00 73 1014.2
20260506200307 19 285 12.9 22.5 0.00 0.00 0.00 72 1014.0
20260506195803 19 294 6.4 20.9 0.00 0.00 0.00 73 1014.1
20260506195300 18 283 12.9 22.5 0.00 0.00 0.00 72 1014.3
20260506194758 19 284 6.4 17.7 0.00 0.00 0.00 72 1014.3
20260506194254 19 269 1.6 17.7 0.00 0.00 0.00 72 1014.4
20260506193752 20 237 4.8 16.1 0.00 0.00 0.00 69 1014.4
20260506193248 19 253 4.8 14.5 0.00 0.00 0.00 71 1014.4
20260506192744 19 253 11.3 14.5 0.00 0.00 0.00 70 1014.4
20260506192241 19 287 4.8 12.9 0.00 0.00 0.00 71 1014.4
20260506191738 19 262 9.7 14.5 0.00 0.00 0.00 70 1014.6
20260506191234 19 266 0.0 9.7 0.00 0.00 0.00 70 1014.4
20260506190732 20 223 1.6 16.1 0.00 0.00 0.00 71 1014.6
20260506190228 20 278 9.7 12.9 0.00 0.00 0.00 70 1014.5
20260506185725 19 218 0.0 12.9 0.00 0.00 0.00 70 1014.8
20260506185221 19 251 8.0 11.3 0.00 0.00 0.00 71 1014.9
20260506184719 19 258 0.0 8.0 0.00 0.00 0.00 71 1014.8
20260506184216 18 233 0.0 3.2 0.00 0.00 0.00 71 1015.1
20260506183713 19 231 3.2 12.9 0.00 0.00 0.00 71 1014.8
20260506183209 19 249 0.0 9.7 0.00 0.00 0.00 70 1015.0
20260506182706 18 251 3.2 12.9 0.00 0.00 0.00 71 1015.0
20260506182204 19 210 0.0 11.3 0.00 0.00 0.00 70 1015.2
20260506181701 20 258 0.0 3.2 0.00 0.00 0.00 68 1015.1
20260506181158 19 242 0.0 4.8 0.00 0.00 0.00 70 1015.4
20260506180655 19 214 0.0 3.2 0.00 0.00 0.00 71 1015.2
20260506180151 19 221 0.0 8.0 0.00 0.00 0.00 70 1015.4
20260506175648 18 256 0.0 12.9 0.00 0.00 0.00 69 1015.2
20260506175144 20 280 0.0 9.7 0.00 0.00 0.00 69 1015.3
20260506174637 19 232 0.0 0.0 0.00 0.00 0.00 67 1015.3
20260506174134 19 46 0.0 0.0 0.00 0.00 0.00 67 1015.5
20260506173631 18 243 0.0 0.0 0.00 0.00 0.00 69 1015.4
20260506173128 19 289 0.0 0.0 0.00 0.00 0.00 67 1015.4
20260506172625 18 259 0.0 1.6 0.00 0.00 0.00 67 1015.7
20260506172121 18 200 0.0 0.0 0.00 0.00 0.00 68 1015.6
20260506171619 18 285 0.0 0.0 0.00 0.00 0.00 69 1015.6
20260506171116 18 213 0.0 0.0 0.00 0.00 0.00 69 1015.8
20260506170614 17 198 0.0 0.0 0.00 0.00 0.00 71 1015.7
20260506170105 17 242 0.0 0.0 0.00 0.00 0.00 71 1015.5
20260506165603 17 200 0.0 0.0 0.00 0.00 0.00 71 1015.7
20260506165059 17 252 0.0 3.2 0.00 0.00 0.00 71 1015.4
20260506164556 17 255 0.0 0.0 0.00 0.00 0.00 72 1015.7
20260506164054 17 196 0.0 0.0 0.00 0.00 0.00 72 1015.5
20260506163549 17 225 0.0 0.0 0.00 0.00 0.00 73 1015.8
20260506163046 17 190 0.0 0.0 0.00 0.00 0.00 73 1015.7
20260506162542 16 203 0.0 0.0 0.00 0.00 0.00 75 1015.7
20260506162039 17 184 0.0 0.0 0.00 0.00 0.00 75 1015.8
20260506161536 17 201 0.0 0.0 0.00 0.00 0.00 73 1015.7
20260506161028 17 177 0.0 0.0 0.00 0.00 0.00 72 1015.7
20260506160525 17 79 0.0 0.0 0.00 0.00 0.00 74 1015.4